ZL1TQN Weather Reports


Display with metric or nautical units.
time (UTC)temp
F
wind
direction
speed
MPH
gust
MPH
rain 1hr
in
rain 24hr
in
rain mn
in
humidity
%
barometer
mb
20260507032506 65 348 2.0 9.0 0.00 0.24 0.02 76 1024.4
20260507032006 66 29 2.0 12.0 0.00 0.24 0.02 75 1024.4
20260507031506 66 1 3.0 12.0 0.00 0.24 0.02 74 1024.4
20260507031005 66 3 3.0 10.0 0.00 0.24 0.02 75 1024.4
20260507025506 67 0 2.0 6.0 0.00 0.24 0.02 74 1024.4
20260507025005 67 326 2.0 7.0 0.00 0.24 0.02 73 1024.4
20260507024506 68 16 4.0 7.0 0.00 0.24 0.02 72 1024.4
20260507023505 68 332 3.0 7.0 0.00 0.24 0.02 75 1024.4
20260507023006 68 343 3.0 10.0 0.00 0.24 0.02 74 1024.4
20260507022506 68 9 3.0 10.0 0.00 0.24 0.02 73 1024.4
20260507022005 69 344 2.0 6.0 0.00 0.24 0.02 73 1024.4
20260507021505 69 2 3.0 7.0 0.00 0.24 0.02 72 1024.4
20260507021005 69 5 2.0 8.0 0.00 0.24 0.02 73 1024.4
20260507020006 68 313 4.0 8.0 0.00 0.24 0.02 73 1024.5
20260507015506 68 355 3.0 7.0 0.00 0.24 0.02 74 1024.5
20260507014506 67 17 4.0 12.0 0.00 0.24 0.02 75 1024.5
20260507014005 67 3 4.0 8.0 0.00 0.24 0.02 76 1024.6
20260507013505 68 12 4.0 12.0 0.00 0.24 0.02 74 1024.8
20260507013006 68 356 3.0 12.0 0.00 0.24 0.02 75 1024.9
20260507012006 68 317 3.0 9.0 0.00 0.24 0.02 79 1024.8
20260507011505 67 326 5.0 10.0 0.00 0.24 0.02 78 1024.9
20260507011006 67 5 2.0 10.0 0.00 0.24 0.02 80 1024.9
20260507010005 67 359 5.0 13.0 0.00 0.24 0.02 79 1024.9
20260507005506 68 1 5.0 13.0 0.00 0.24 0.02 76 1024.9
20260507005005 68 2 2.0 9.0 0.00 0.24 0.02 79 1025.0
20260507004505 68 7 2.0 14.0 0.00 0.24 0.02 80 1025.0
20260507004005 67 6 4.0 14.0 0.00 0.24 0.02 80 1025.1
20260507003505 67 9 3.0 14.0 0.00 0.24 0.02 81 1025.1
20260507003005 67 26 3.0 13.0 0.00 0.24 0.02 81 1025.1
20260507002506 67 18 7.0 15.0 0.00 0.24 0.02 80 1025.1
20260507002005 67 34 3.0 15.0 0.00 0.24 0.02 81 1025.1
20260507001505 67 10 5.0 15.0 0.00 0.24 0.02 81 1025.2
20260507001005 67 4 3.0 13.0 0.00 0.24 0.02 81 1025.4
20260507000005 68 26 3.0 14.0 0.00 0.24 0.02 82 1025.4
20260506235505 68 1 7.0 14.0 0.00 0.24 0.02 80 1025.4
20260506234505 68 16 4.0 13.0 0.00 0.24 0.02 81 1025.5
20260506233505 68 15 5.0 13.0 0.00 0.24 0.02 82 1025.7
20260506233006 67 23 4.0 10.0 0.00 0.24 0.02 83 1025.8
20260506232505 67 17 2.0 12.0 0.00 0.25 0.02 84 1025.9
20260506232005 67 0 4.0 12.0 0.00 0.25 0.02 83 1025.9
20260506231506 66 350 3.0 12.0 0.00 0.26 0.02 84 1025.9
20260506231006 66 0 3.0 12.0 0.00 0.26 0.02 85 1025.9
20260506230005 66 22 5.0 12.0 0.00 0.26 0.02 84 1026.1
20260506225505 66 16 4.0 12.0 0.00 0.26 0.02 84 1026.3
20260506224505 66 345 3.0 10.0 0.00 0.26 0.02 85 1026.4
20260506224005 66 12 4.0 10.0 0.00 0.26 0.02 85 1026.4
20260506223506 66 6 4.0 12.0 0.00 0.26 0.02 85 1026.5
20260506223006 66 11 4.0 12.0 0.00 0.26 0.02 84 1026.5
20260506222505 66 355 1.0 3.0 0.00 0.26 0.02 85 1026.5
20260506222006 66 4 1.0 3.0 0.00 0.26 0.02 85 1026.5
20260506221506 65 328 2.0 5.0 0.00 0.26 0.02 84 1026.5
20260506221005 65 312 2.0 5.0 0.00 0.26 0.02 83 1026.6
20260506220005 65 334 2.0 9.0 0.00 0.26 0.02 85 1026.7
20260506215505 64 333 2.0 9.0 0.00 0.26 0.02 85 1026.8
20260506215006 64 18 2.0 5.0 0.00 0.26 0.02 85 1026.9
20260506214505 64 352 2.0 5.0 0.00 0.26 0.02 87 1026.9
20260506214005 64 354 2.0 5.0 0.00 0.26 0.02 90 1026.9
20260506213506 64 308 2.0 3.0 0.00 0.26 0.02 93 1026.9
20260506213005 63 344 1.0 3.0 0.00 0.26 0.02 94 1026.9
20260506212005 63 325 2.0 5.0 0.00 0.26 0.02 94 1027.0
20260506211506 63 344 1.0 5.0 0.00 0.26 0.02 94 1026.9
20260506211005 63 333 2.0 6.0 0.01 0.26 0.02 95 1026.9
20260506210005 63 334 4.0 9.0 0.02 0.28 0.02 96 1026.8
20260506205005 62 22 1.0 7.0 0.02 0.31 0.02 97 1027.0
20260506204505 61 48 0.0 2.0 0.02 0.32 0.02 96 1026.9
20260506203005 60 64 0.0 2.0 0.02 0.33 0.02 96 1026.9
20260506202505 60 66 1.0 2.0 0.02 0.33 0.02 96 1026.8
20260506202005 60 122 1.0 2.0 0.02 0.33 0.02 96 1026.8
20260506201505 60 136 0.0 2.0 0.02 0.33 0.02 96 1026.8
20260506201005 60 143 1.0 2.0 0.01 0.32 0.02 96 1026.7
20260506200006 60 156 1.0 3.0 0.00 0.31 0.01 96 1026.6
20260506195505 60 149 2.0 3.0 0.00 0.31 0.01 96 1026.6
20260506195005 60 165 2.0 2.0 0.00 0.31 0.01 96 1026.6
20260506194505 60 149 1.0 2.0 0.00 0.31 0.01 96 1026.7
20260506194005 60 159 1.0 2.0 0.00 0.31 0.01 96 1026.7
20260506193505 60 129 0.0 2.0 0.00 0.31 0.01 96 1026.7
20260506193005 60 129 1.0 2.0 0.00 0.31 0.01 96 1026.6
20260506192505 60 129 1.0 2.0 0.00 0.31 0.01 96 1026.6
20260506192005 60 129 0.0 2.0 0.00 0.31 0.01 96 1026.6
20260506191505 60 125 1.0 2.0 0.00 0.31 0.01 96 1026.6
20260506191005 60 108 0.0 1.0 0.00 0.31 0.01 96 1026.6
20260506190006 60 121 0.0 2.0 0.00 0.31 0.01 96 1026.5
20260506185505 60 117 1.0 2.0 0.00 0.31 0.01 96 1026.5
20260506185006 60 123 1.0 2.0 0.00 0.32 0.01 96 1026.5
20260506184505 60 78 1.0 2.0 0.00 0.34 0.01 96 1026.5
20260506184005 60 111 1.0 1.0 0.00 0.35 0.01 96 1026.5
20260506183505 60 156 0.0 1.0 0.00 0.35 0.01 96 1026.5
20260506183006 60 156 1.0 2.0 0.00 0.35 0.01 96 1026.5
20260506182505 60 156 1.0 2.0 0.00 0.35 0.01 96 1026.5
20260506182005 60 147 1.0 2.0 0.00 0.35 0.01 96 1026.5
20260506181505 60 147 2.0 2.0 0.00 0.35 0.01 96 1026.5
20260506175005 60 146 1.0 2.0 0.01 0.35 0.01 96 1026.5
20260506174505 60 142 1.0 2.0 0.01 0.35 0.01 96 1026.5
20260506174005 60 156 1.0 2.0 0.01 0.35 0.01 96 1026.5
20260506173505 60 157 1.0 2.0 0.01 0.35 0.01 96 1026.5
20260506173005 60 157 1.0 2.0 0.01 0.35 0.01 96 1026.5
20260506172006 60 172 1.0 2.0 0.01 0.35 0.01 96 1026.5
20260506171506 60 165 1.0 2.0 0.01 0.35 0.01 96 1026.5
20260506171006 59 166 1.0 3.0 0.01 0.35 0.01 96 1026.5
20260506165505 59 151 1.0 2.0 0.00 0.35 0.00 96 1026.5
20260506165005 59 155 1.0 3.0 0.00 0.35 0.00 96 1026.5
20260506164506 59 148 1.0 3.0 0.00 0.35 0.00 96 1026.5
20260506164005 59 154 1.0 3.0 0.00 0.35 0.00 96 1026.5
20260506163505 59 162 1.0 2.0 0.00 0.35 0.00 96 1026.5
20260506163005 59 151 1.0 2.0 0.00 0.35 0.00 96 1026.6
20260506162505 59 148 1.0 2.0 0.00 0.35 0.00 96 1026.6
20260506162006 59 148 1.0 2.0 0.00 0.35 0.00 96 1026.6
20260506161005 60 148 1.0 2.0 0.00 0.35 0.00 96 1026.8
20260506160005 60 134 1.0 2.0 0.00 0.35 0.00 96 1026.8
20260506155505 60 135 1.0 3.0 0.00 0.35 0.00 96 1026.8
20260506155005 60 140 2.0 3.0 0.00 0.35 0.00 96 1026.9
20260506154505 60 149 0.0 2.0 0.00 0.35 0.00 96 1027.0
20260506154006 60 143 1.0 2.0 0.00 0.35 0.00 96 1027.0
20260506153504 60 149 1.0 2.0 0.00 0.35 0.00 96 1027.0
20260506153005 60 138 1.0 2.0 0.00 0.35 0.00 96 1027.0
20260506152505 60 158 1.0 3.0 0.00 0.35 0.00 96 1027.2
20260506152005 60 144 1.0 3.0 0.00 0.35 0.00 96 1027.2
20260506151505 60 135 0.0 2.0 0.00 0.35 0.00 96 1027.3
20260506151005 60 134 0.0 1.0 0.00 0.35 0.00 96 1027.4
20260506145505 60 134 0.0 1.0 0.00 0.35 0.00 96 1027.5
20260506145005 60 134 0.0 1.0 0.00 0.36 0.00 96 1027.5
20260506144505 60 134 1.0 2.0 0.00 0.39 0.00 96 1027.6
20260506144005 60 130 1.0 2.0 0.00 0.39 0.00 96 1027.6
20260506143505 60 139 1.0 2.0 0.00 0.39 0.00 96 1027.6
20260506143005 60 183 0.0 1.0 0.00 0.39 0.00 96 1027.8
20260506142505 60 183 0.0 1.0 0.00 0.39 0.00 96 1027.9
20260506142005 60 183 0.0 1.0 0.00 0.39 0.00 96 1028.0
20260506141005 60 183 1.0 1.0 0.00 0.39 0.00 96 1028.0
20260506140005 60 183 0.0 1.0 0.00 0.39 0.00 96 1028.0
20260506135004 60 183 0.0 2.0 0.00 0.39 0.00 96 1028.1
20260506134505 60 183 1.0 2.0 0.00 0.39 0.00 96 1028.1
20260506134005 60 183 1.0 2.0 0.00 0.39 0.00 96 1028.1
20260506133505 60 183 0.0 1.0 0.00 0.39 0.00 96 1028.1
20260506132005 60 183 1.0 2.0 0.00 0.39 0.00 96 1028.2
20260506131505 60 183 1.0 1.0 0.00 0.39 0.00 96 1028.2
20260506131005 60 183 1.0 2.0 0.00 0.39 0.00 96 1028.1
20260506130006 60 183 1.0 2.0 0.00 0.39 0.00 96 1028.1
20260506125506 60 183 1.0 2.0 0.20 0.39 0.00 96 1028.1
20260506125006 60 183 1.0 2.0 0.20 0.39 0.00 96 1028.1
20260506124504 60 176 1.0 3.0 0.20 0.39 0.00 96 1028.1
20260506124005 60 170 1.0 3.0 0.20 0.39 0.00 96 1028.1
20260506123505 60 170 1.0 2.0 0.20 0.39 0.00 96 1028.1
20260506123004 60 170 1.0 2.0 0.20 0.39 0.00 96 1028.1
20260506122505 60 170 1.0 2.0 0.20 0.39 0.00 96 1028.2
20260506122004 60 170 1.0 2.0 0.20 0.39 0.00 96 1028.4
20260506121505 60 170 0.0 2.0 0.20 0.39 0.00 96 1028.4
20260506121005 60 161 1.0 2.0 0.00 0.39 0.20 96 1028.3
20260506120006 60 150 1.0 3.0 0.00 0.20 0.00 96 1028.4
20260506115505 60 154 2.0 3.0 0.00 0.20 0.20 96 1028.5
20260506115005 60 148 1.0 2.0 0.00 0.20 0.20 96 1028.6
20260506114505 60 148 1.0 2.0 0.00 0.20 0.20 96 1028.6
20260506114005 60 148 1.0 2.0 0.00 0.20 0.20 96 1028.6
20260506113505 60 149 1.0 2.0 0.00 0.20 0.20 96 1028.6
20260506113005 60 139 1.0 2.0 0.00 0.20 0.20 96 1028.6
20260506112505 60 157 0.0 2.0 0.00 0.20 0.20 96 1028.6
20260506112005 60 157 1.0 2.0 0.00 0.20 0.20 96 1028.6
20260506111505 60 157 1.0 2.0 0.00 0.20 0.20 96 1028.6
20260506111005 60 157 0.0 2.0 0.00 0.20 0.20 96 1028.6
20260506110004 60 138 1.0 2.0 0.00 0.20 0.20 95 1028.6
20260506105505 60 164 1.0 2.0 0.00 0.20 0.20 95 1028.6
20260506105005 60 143 1.0 2.0 0.00 0.20 0.20 95 1028.6
20260506104505 60 125 0.0 2.0 0.00 0.20 0.20 95 1028.6
20260506104006 60 117 1.0 2.0 0.00 0.20 0.20 95 1028.6
20260506103005 60 150 0.0 2.0 0.00 0.20 0.20 95 1028.9
20260506102504 60 150 1.0 2.0 0.00 0.20 0.20 95 1028.9
20260506102004 60 150 1.0 2.0 0.00 0.20 0.20 95 1028.9
20260506101504 60 151 1.0 2.0 0.00 0.20 0.20 95 1028.9
20260506095505 60 147 1.0 2.0 0.00 0.20 0.20 95 1029.1
20260506095013 60 147 1.0 2.0 0.00 0.20 0.20 95 1029.1
20260506094012 60 193 1.0 2.0 0.01 0.20 0.20 95 1029.1
20260506093509 60 193 0.0 1.0 0.02 0.20 0.20 95 1029.1
20260506093011 60 193 1.0 1.0 0.02 0.20 0.20 95 1029.1
20260506092510 60 193 1.0 1.0 0.02 0.20 0.20 94 1029.1
20260506092007 60 193 0.0 1.0 0.02 0.20 0.20 95 1029.1
20260506091506 61 193 0.0 1.0 0.02 0.20 0.20 95 1029.1
20260506091008 61 193 0.0 1.0 0.02 0.20 0.20 95 1029.1
20260506085512 61 193 1.0 2.0 0.02 0.20 0.20 94 1029.1
20260506083511 61 0 0.0 1.0 0.00 0.18 0.18 95 1029.2
20260506083014 61 254 0.0 2.0 0.00 0.18 0.18 95 1029.1
20260506082510 61 165 1.0 2.0 0.00 0.18 0.18 95 1029.1
20260506082010 61 165 1.0 2.0 0.00 0.18 0.18 95 1029.1
20260506081008 61 165 0.0 2.0 0.00 0.18 0.18 95 1029.1
20260506073007 62 114 0.0 1.0 0.00 0.18 0.18 94 1029.1
20260506072508 62 114 0.0 1.0 0.00 0.18 0.18 94 1029.1
20260506072008 62 114 0.0 1.0 0.00 0.18 0.18 94 1029.1
20260506071507 62 114 0.0 1.0 0.00 0.18 0.18 94 1029.1
20260506061507 62 79 0.0 1.0 0.00 0.18 0.18 94 1028.8
20260506061007 62 79 0.0 1.0 0.00 0.18 0.18 94 1028.7
20260506051007 63 20 0.0 0.0 0.00 0.18 0.18 92 1028.6
20260506045008 64 17 0.0 2.0 0.00 0.18 0.18 91 1028.6
20260506044507 64 3 1.0 2.0 0.00 0.18 0.18 90 1028.6
20260506044007 64 12 1.0 3.0 0.00 0.18 0.18 90 1028.6
20260506043507 64 8 0.0 3.0 0.00 0.18 0.18 90 1028.6
20260506043007 64 5 1.0 3.0 0.00 0.18 0.18 89 1028.6
20260506042507 64 345 1.0 2.0 0.00 0.18 0.18 88 1028.7
20260506042006 64 23 0.0 2.0 0.00 0.18 0.18 88 1028.7
20260506041007 64 9 1.0 3.0 0.00 0.18 0.18 88 1028.9
20260506040005 64 32 2.0 5.0 0.00 0.18 0.18 87 1028.8
20260506035506 64 20 2.0 6.0 0.00 0.18 0.18 88 1028.8
20260506035005 64 38 2.0 6.0 0.00 0.18 0.18 88 1028.7
20260506034506 64 43 1.0 5.0 0.00 0.18 0.18 88 1028.7
20260506034006 64 22 2.0 5.0 0.00 0.18 0.18 88 1028.7
20260506033505 64 351 3.0 5.0 0.00 0.18 0.18 88 1028.8
20260506033006 64 349 1.0 3.0 0.00 0.18 0.18 89 1028.9